[Date Prev][Date Next][Thread Prev][Thread Next] - [Date Index][Thread Index][Author Index]
2 Line ISS Keps 5-30
- Subject: [sarex] 2 Line ISS Keps 5-30
- From: "Dave Larsen PhD" <doc@xxxxxxxxxxx>
- Date: Thu, 30 May 2002 01:20:46 -0700
ISS
1 25544U 98067A 02150.20890506 .00024486 00000-0 30112-3 0 5088
2 25544 51.6350 143.3209 0006733 130.6729 337.8857 15.60092577201221
----
Via the sarex mailing list at AMSAT.ORG courtesy of AMSAT-NA.
To unsubscribe, send "unsubscribe sarex" to Majordomo@amsat.org
AMSAT Home